Regional Weather Roundup
Issued by NWS Portland, ME

Home | Current Version | Previous Version | Text Only | Print | Product List | Glossary On
Versions: 1 2 3 4 5 6 7 8 9 10 11 12 13 14 15 16 17 18 19 20 21 22 23 24 25 26 27 28 29 30 31 32 33 34 35 36 37 38 39 40 41 42 43 44 45 46 47 48 49 50
000
ASUS41 KGYX 261510
RWRGYX
WEATHER ROUNDUP FOR MAINE AND NEW HAMPSHIRE
NATIONAL WEATHER SERVICE GRAY ME
1100 AM EDT SAT JUL 26 2014

MEZ002-005-006-010-012-015-018-020-021-024-026-027-029-261600-
MAINE

CITY           SKY/WX    TMP DP  RH WIND       PRES   REMARKS
PORTLAND       PTSUNNY   76  60  57 SW7       29.93F
SANFORD        PTSUNNY   75  61  60 SW6       29.94S
BAR HARBOR     SUNNY     73  64  73 S7        29.92S
WISCASSET      MOSUNNY   75  60  59 VRB3      29.94F
ROCKLAND       MOSUNNY   73  63  68 SW9       29.92F
FRYEBURG       SUNNY     78  59  51 VRB6      29.93F
LEWISTONAUBURN MOSUNNY   75  55  50 SW5       29.93F
AUGUSTA        SUNNY     74  57  55 SW6       29.93S
WATERVILLE     SUNNY     73  57  56 SW7       29.88F
BANGOR         MOSUNNY   77  56  48 SW9       29.91F
GREENVILLE       N/A     71  54  54 CALM      29.89F
MILLINOCKET    SUNNY     73  55  53 CALM      29.89F
HOULTON        MOSUNNY   73  56  54 SW12      29.86S
PRESQUE ISLE   PTSUNNY   72  52  49 SW14G20   29.84F
FRENCHVILLE    PTSUNNY   69  54  58 SW13G21   29.80F
CARIBOU        PTSUNNY   72  55  55 SW13      29.82F
$$

NHZ002-005-008-009-011-012-014-261600-
NEW HAMPSHIRE

CITY           SKY/WX    TMP DP  RH WIND       PRES   REMARKS
PORTSMOUTH     PTSUNNY   78  62  57 SW7       29.93F
ROCHESTER      PTSUNNY   74  61  63 VRB3      29.94F
NASHUA         MOSUNNY   79  61  53 VRB6      29.95F
MANCHESTER     MOSUNNY   76  60  57 S8        29.93F
CONCORD        MOSUNNY   75  61  61 VRB3      29.94F
LACONIA          N/A     73  59  60 SW8       29.93S
PLYMOUTH       PTSUNNY   70  61  71 CALM      29.93F
BERLIN         MOSUNNY   73  55  53 SW7       29.93F
WHITEFIELD     MOSUNNY   73  57  57 W12       29.93F
JAFFREY        MOSUNNY   73  57  57 SW10      29.99S
LEBANON        PTSUNNY   74  58  57 W5        29.94S
MT WASHINGTON  NOT AVBL
$$

VTZ005-007-008-261600-
VERMONT

CITY           SKY/WX    TMP DP  RH WIND       PRES   REMARKS
ST JOHNSBURY     N/A     71  57  61 MISG      29.90F
MONTPELIER     PTSUNNY   69  55  60 VRB7G17   29.97S
BURLINGTON     PTSUNNY   76  54  46 SW10      29.90F
$$

MAZ007-012-024-CTZ003-RIZ002-NYZ038-NYZ072-261600-
SOUTHERN NEW ENGLAND AND NY

CITY           SKY/WX    TMP DP  RH WIND       PRES   REMARKS
BOSTON         PTSUNNY   79  62  56 SW14      29.95F
WORCESTER      SUNNY     75  55  49 SW13      29.99S
NANTUCKET      SUNNY     71  66  84 S9        30.02F
PROVIDENCE     PTSUNNY   79  64  60 S8        29.98F
HARTFORD       PTSUNNY   81  56  42 SW7       29.95F
ALBANY         PTSUNNY   74  57  55 CALM      29.96F
NEW YORK CITY  CLOUDY    77  58  51 SW8       29.99S
$$

ANZ081-ANZ082-ANZ150-NHZ014-MEZ023>029-261600-
COASTAL MARINE OBSERVATIONS

STATION/POSITION TIME  TEMP    WIND        PRES    WAVE
                       AIR SEA DIR/SP/G            HT/PER
                 (UTC) (F)     (DEG/KT/KT) (MB)    (FT/S)
MOUNT DESERT ROC 1400   59                 1013.8
MATINICUS ROCK   1500          230/ 14/ 15 1013.5F
PORTLAND WX BUOY 1500   65 65  200/  8/ 10 1013.5F   2/ 8
WELLS            1500   68 59  170/  7/  8 1012.9F
ISLE OF SHOALS   1500   68     190/  9/  9 1013.5F
JEFFREYS LEDGE   1500      65                N/A     2/ 8
CASHES LEDGE BUO 1500   67 66  VRB 10/ 12  1013.6F   3/ 9
$$

.............KEY..............
   WCI - WIND CHILL
   TC  - TEMPERATURE IN CELSIUS
   VSB - VISIBILITY IN MILES
   HX  - HEAT INDEX
   FAIR- INDICATES FEW OR NO CLOUDS BELOW 12,000 FT, WITH NO
         SIGNIFICANT WEATHER AND/OR OBSTRUCTIONS TO VISIBILITY.




USA.gov is the U.S. government's official web portal to all federal, state and local government web resources and services.